ARG1301 MPDA-MROC

Flight info

Callsign ARG1301
Flight time N/A
Altitude 26000
Route DAV UA502 POXON DCT COTOS UR773 PARRI
Aircraft A319/M-SDE3FGHIRWY/LB1

Departure

Time N/A
Airport Enrique Malek International Airport (MPDA)

Arrival

Time 2026-04-28 03:07
Airport Juan Santamaría International Airport (MROC)
Time Latitude Longitude Altitude Speed Heading
2026-04-28 02:25 8.91367 -82.64148 18721 ft 410 kts 340°
2026-04-28 02:26 8.94061 -82.65128 19209 ft 413 kts 341°
2026-04-28 02:26 8.96779 -82.66115 19677 ft 419 kts 340°
2026-04-28 02:26 8.99527 -82.67112 20175 ft 421 kts 340°
2026-04-28 02:26 9.02289 -82.68116 20629 ft 424 kts 340°
2026-04-28 02:27 9.05065 -82.69123 21074 ft 426 kts 340°
2026-04-28 02:27 9.07861 -82.70140 21506 ft 430 kts 340°
2026-04-28 02:27 9.10680 -82.71166 21914 ft 433 kts 340°
2026-04-28 02:27 9.13518 -82.72199 22316 ft 436 kts 340°
2026-04-28 02:28 9.16374 -82.73239 22716 ft 439 kts 340°
2026-04-28 02:28 9.19254 -82.74287 23103 ft 442 kts 340°
2026-04-28 02:28 9.22149 -82.75339 23478 ft 445 kts 340°
2026-04-28 02:28 9.25062 -82.76399 23825 ft 447 kts 339°
2026-04-28 02:29 9.27993 -82.77465 24179 ft 450 kts 339°
2026-04-28 02:29 9.30942 -82.78540 24529 ft 453 kts 339°
2026-04-28 02:29 9.33907 -82.79621 24862 ft 455 kts 339°
2026-04-28 02:29 9.36893 -82.80708 25168 ft 458 kts 339°
2026-04-28 02:30 9.39903 -82.81799 25455 ft 462 kts 339°
2026-04-28 02:30 9.42929 -82.82898 25767 ft 465 kts 339°
2026-04-28 02:30 9.45970 -82.84018 25908 ft 467 kts 337°
2026-04-28 02:30 9.48880 -82.85506 25936 ft 472 kts 326°
2026-04-28 02:31 9.51471 -82.87538 25945 ft 473 kts 315°
2026-04-28 02:31 9.53644 -82.90021 25944 ft 472 kts 304°
2026-04-28 02:31 9.55323 -82.92856 25944 ft 470 kts 294°
2026-04-28 02:31 9.56435 -82.95945 25942 ft 468 kts 283°
2026-04-28 02:32 9.57232 -82.99137 25943 ft 468 kts 283°
2026-04-28 02:32 9.58034 -83.02325 25943 ft 468 kts 283°
2026-04-28 02:32 9.58846 -83.05511 25944 ft 468 kts 283°
2026-04-28 02:32 9.59664 -83.08693 25943 ft 468 kts 283°
2026-04-28 02:33 9.60489 -83.11873 25943 ft 468 kts 284°
2026-04-28 02:33 9.61532 -83.14992 25941 ft 468 kts 289°
2026-04-28 02:33 9.62641 -83.18083 25939 ft 468 kts 288°
2026-04-28 02:33 9.63744 -83.21180 25939 ft 468 kts 288°
2026-04-28 02:34 9.64843 -83.24273 25938 ft 468 kts 288°
2026-04-28 02:34 9.65939 -83.27370 25937 ft 468 kts 288°
2026-04-28 02:34 9.67035 -83.30462 25943 ft 463 kts 288°
2026-04-28 02:34 9.68113 -83.33511 25951 ft 458 kts 288°
2026-04-28 02:35 9.69183 -83.36535 25957 ft 457 kts 288°
2026-04-28 02:35 9.70254 -83.39556 25963 ft 456 kts 288°
2026-04-28 02:35 9.71315 -83.42533 25934 ft 441 kts 288°
2026-04-28 02:35 9.72334 -83.45390 25805 ft 420 kts 288°
2026-04-28 02:36 9.73290 -83.48073 25580 ft 394 kts 288°
2026-04-28 02:36 9.74198 -83.50633 24964 ft 381 kts 288°
2026-04-28 02:36 9.74843 -83.53191 24213 ft 372 kts 276°
2026-04-28 02:36 9.75011 -83.55781 23147 ft 371 kts 272°
2026-04-28 02:37 9.75151 -83.58423 21717 ft 382 kts 273°
2026-04-28 02:37 9.75291 -83.61142 20217 ft 392 kts 273°
2026-04-28 02:37 9.75351 -83.63923 18622 ft 400 kts 265°
2026-04-28 02:37 9.74995 -83.66686 18019 ft 384 kts 263°
2026-04-28 02:38 9.74669 -83.69269 17896 ft 357 kts 264°
2026-04-28 02:38 9.74383 -83.71686 17606 ft 338 kts 264°
2026-04-28 02:38 9.74115 -83.74019 17014 ft 331 kts 264°
2026-04-28 02:38 9.73851 -83.76318 16382 ft 327 kts 264°
2026-04-28 02:39 9.73592 -83.78556 16121 ft 311 kts 264°
2026-04-28 02:39 9.73344 -83.80663 16025 ft 296 kts 264°
2026-04-28 02:39 9.73099 -83.82701 15902 ft 289 kts 264°
2026-04-28 02:39 9.72854 -83.84689 15781 ft 282 kts 262°
2026-04-28 02:40 9.72297 -83.86562 15655 ft 276 kts 243°
2026-04-28 02:40 9.71148 -83.88078 15531 ft 271 kts 220°
2026-04-28 02:40 9.69529 -83.88984 15372 ft 266 kts 195°
2026-04-28 02:40 9.67711 -83.89143 15141 ft 264 kts 171°
2026-04-28 02:41 9.65988 -83.88571 14879 ft 261 kts 148°
2026-04-28 02:41 9.64621 -83.87386 14624 ft 259 kts 126°
2026-04-28 02:41 9.63807 -83.85785 14368 ft 257 kts 103°
2026-04-28 02:41 9.63611 -83.84001 14121 ft 256 kts 89°
2026-04-28 02:42 9.63657 -83.82205 13881 ft 255 kts 86°
2026-04-28 02:42 9.63759 -83.80419 13634 ft 254 kts 85°
2026-04-28 02:42 9.63879 -83.78642 13376 ft 253 kts 85°
2026-04-28 02:42 9.63995 -83.76869 13149 ft 252 kts 85°
2026-04-28 02:43 9.64245 -83.75131 13127 ft 250 kts 70°
2026-04-28 02:43 9.65044 -83.73582 13151 ft 249 kts 49°
2026-04-28 02:43 9.66332 -83.72435 13050 ft 248 kts 28°
2026-04-28 02:43 9.67944 -83.71856 13015 ft 247 kts
2026-04-28 02:44 9.69651 -83.71907 13008 ft 247 kts 346°
2026-04-28 02:44 9.71225 -83.72580 13009 ft 248 kts 325°
2026-04-28 02:44 9.72456 -83.73793 13013 ft 249 kts 304°
2026-04-28 02:44 9.73164 -83.75382 13013 ft 250 kts 283°
2026-04-28 02:45 9.73309 -83.77134 13014 ft 251 kts 270°
2026-04-28 02:45 9.73257 -83.78903 13013 ft 252 kts 268°
2026-04-28 02:45 9.73151 -83.80669 13022 ft 252 kts 267°
2026-04-28 02:45 9.73035 -83.82438 13024 ft 252 kts 267°
2026-04-28 02:46 9.72923 -83.84207 13027 ft 252 kts 267°
2026-04-28 02:46 9.72607 -83.85944 13022 ft 252 kts 246°
2026-04-28 02:46 9.71574 -83.87361 13026 ft 253 kts 218°
2026-04-28 02:46 9.70007 -83.88135 13070 ft 253 kts 190°
2026-04-28 02:47 9.68262 -83.88090 13181 ft 254 kts 163°
2026-04-28 02:47 9.66735 -83.87234 13293 ft 254 kts 134°
2026-04-28 02:47 9.65774 -83.85762 13336 ft 252 kts 107°
2026-04-28 02:47 9.65564 -83.84021 13246 ft 251 kts 87°
2026-04-28 02:48 9.65639 -83.82260 13019 ft 250 kts 85°
2026-04-28 02:48 9.65741 -83.80517 13036 ft 249 kts 85°
2026-04-28 02:48 9.65847 -83.78764 13142 ft 250 kts 85°
2026-04-28 02:48 9.65962 -83.77006 13180 ft 250 kts 81°
2026-04-28 02:49 9.66547 -83.75376 13189 ft 248 kts 53°
2026-04-28 02:49 9.67793 -83.74201 13153 ft 247 kts 27°
2026-04-28 02:49 9.69420 -83.73725 13047 ft 246 kts
2026-04-28 02:49 9.71080 -83.74043 12938 ft 246 kts 334°
2026-04-28 02:50 9.72424 -83.75090 12875 ft 247 kts 307°
2026-04-28 02:50 9.73159 -83.76646 12858 ft 249 kts 281°
2026-04-28 02:50 9.73228 -83.78394 12852 ft 250 kts 269°
2026-04-28 02:50 9.73150 -83.80154 12860 ft 251 kts 267°
2026-04-28 02:51 9.73048 -83.81915 12862 ft 251 kts 267°
2026-04-28 02:51 9.72941 -83.83676 12862 ft 251 kts 267°
2026-04-28 02:51 9.72763 -83.85431 12861 ft 251 kts 254°
2026-04-28 02:51 9.71950 -83.86976 12862 ft 252 kts 226°
2026-04-28 02:52 9.70520 -83.87965 12880 ft 251 kts 198°
2026-04-28 02:52 9.68804 -83.88165 12977 ft 252 kts 171°
2026-04-28 02:52 9.67187 -83.87539 13085 ft 252 kts 143°
2026-04-28 02:52 9.66038 -83.86227 13169 ft 251 kts 115°
2026-04-28 02:53 9.65625 -83.84536 13194 ft 249 kts 89°
2026-04-28 02:53 9.65674 -83.82782 13201 ft 250 kts 86°
2026-04-28 02:53 9.65770 -83.81022 13203 ft 251 kts 85°
2026-04-28 02:53 9.65876 -83.79262 13200 ft 250 kts 85°
2026-04-28 02:54 9.65983 -83.77504 13194 ft 250 kts 85°
2026-04-28 02:54 9.66385 -83.75808 13191 ft 249 kts 60°
2026-04-28 02:54 9.67483 -83.74487 13161 ft 247 kts 34°
2026-04-28 02:54 9.69043 -83.73825 13056 ft 246 kts
2026-04-28 02:55 9.70728 -83.73960 12957 ft 245 kts 340°
2026-04-28 02:55 9.72172 -83.74852 12875 ft 246 kts 314°
2026-04-28 02:55 9.73067 -83.76316 12858 ft 248 kts 287°
2026-04-28 02:55 9.73246 -83.78041 12855 ft 249 kts 269°
2026-04-28 02:56 9.73176 -83.79797 12859 ft 250 kts 267°
2026-04-28 02:56 9.73075 -83.81555 12863 ft 250 kts 267°
2026-04-28 02:56 9.72975 -83.83270 12862 ft 240 kts 270°
2026-04-28 02:56 9.73301 -83.84886 12857 ft 233 kts 297°
2026-04-28 02:57 9.74275 -83.86160 12870 ft 230 kts 316°
2026-04-28 02:57 9.75409 -83.87294 12863 ft 229 kts 316°
2026-04-28 02:57 9.76546 -83.88424 12870 ft 229 kts 316°
2026-04-28 02:57 9.77682 -83.89554 12871 ft 229 kts 316°
2026-04-28 02:58 9.78817 -83.90686 12874 ft 229 kts 316°
2026-04-28 02:58 9.79949 -83.91815 12834 ft 227 kts 315°
2026-04-28 02:58 9.81071 -83.92928 12436 ft 227 kts 316°
2026-04-28 02:58 9.82193 -83.94052 12068 ft 227 kts 316°
2026-04-28 02:59 9.83308 -83.95166 11703 ft 225 kts 316°
2026-04-28 02:59 9.84416 -83.96273 11327 ft 224 kts 316°
2026-04-28 02:59 9.85519 -83.97378 10949 ft 223 kts 316°
2026-04-28 02:59 9.86616 -83.98479 10565 ft 222 kts 316°
2026-04-28 03:00 9.87712 -83.99580 10189 ft 222 kts 316°
2026-04-28 03:00 9.88805 -84.00675 9811 ft 221 kts 316°
2026-04-28 03:00 9.89894 -84.01770 9429 ft 221 kts 313°
2026-04-28 03:00 9.90792 -84.03023 9060 ft 221 kts 302°
2026-04-28 03:01 9.91591 -84.04347 8666 ft 220 kts 302°
2026-04-28 03:01 9.92394 -84.05664 8295 ft 220 kts 302°
2026-04-28 03:01 9.93189 -84.06966 8008 ft 213 kts 302°
2026-04-28 03:01 9.93932 -84.08187 7883 ft 195 kts 302°
2026-04-28 03:02 9.94765 -84.09217 7618 ft 187 kts 321°
2026-04-28 03:02 9.95863 -84.09883 7293 ft 184 kts 341°
2026-04-28 03:02 9.97093 -84.10134 6932 ft 179 kts 360°
2026-04-28 03:02 9.98332 -84.10119 6450 ft 179 kts 355°
2026-04-28 03:03 9.99528 -84.10426 6000 ft 178 kts 336°
2026-04-28 03:03 10.00549 -84.11105 5817 ft 179 kts 319°
2026-04-28 03:03 10.01444 -84.11995 5540 ft 185 kts 314°
2026-04-28 03:03 10.02090 -84.13150 5053 ft 196 kts 280°
2026-04-28 03:04 10.01918 -84.14507 4498 ft 199 kts 249°
2026-04-28 03:04 10.01397 -84.15784 4096 ft 189 kts 244°
2026-04-28 03:04 10.00873 -84.16906 3873 ft 166 kts 247°
2026-04-28 03:04 10.00476 -84.17951 3607 ft 154 kts 251°
2026-04-28 03:05 10.00111 -84.18977 3309 ft 163 kts 250°
2026-04-28 03:05 9.99695 -84.20103 3085 ft 185 kts 250°
2026-04-28 03:05 9.99192 -84.21444 3047 ft 221 kts 249°
2026-04-28 03:05 9.99030 -84.23050 3356 ft 243 kts 277°
2026-04-28 03:06 9.99169 -84.24711 3671 ft 225 kts 261°
2026-04-28 03:06 9.98294 -84.25747 3806 ft 190 kts 181°
2026-04-28 03:06 9.97364 -84.25116 3527 ft 170 kts 96°
2026-04-28 03:06 9.97817 -84.24090 3182 ft 156 kts 52°
2026-04-28 03:07 9.98442 -84.23257 3084 ft 144 kts 56°
2026-04-28 03:07 9.98833 -84.22356 2986 ft 135 kts 69°
2026-04-28 03:07 9.99142 -84.21548 2953 ft 102 kts 69°
2026-04-28 03:07 9.99332 -84.21138 2979 ft 46 kts 49°
2026-04-28 03:08 9.99463 -84.20947 2990 ft 24 kts 67°
2026-04-28 03:08 9.99501 -84.20851 2994 ft 13 kts 69°
2026-04-28 03:08 9.99533 -84.20764 2998 ft 10 kts 69°
2026-04-28 03:08 9.99559 -84.20695 3001 ft 14 kts 69°
2026-04-28 03:09 9.99584 -84.20627 3004 ft 8 kts 69°
2026-04-28 03:09 9.99608 -84.20565 3007 ft 12 kts 69°
2026-04-28 03:09 9.99648 -84.20459 3011 ft 16 kts 69°
2026-04-28 03:09 9.99669 -84.20397 3016 ft 10 kts 71°
2026-04-28 03:10 9.99708 -84.20313 3017 ft 8 kts 34°
2026-04-28 03:10 9.99758 -84.20316 3017 ft 0 kts 341°